,,PA_Meas_PMT16A,,PR_Meas_QMR101_102,,RH_Meas_QMH101,,SR_Meas_QMS101,,TA_Meas_QMH101,,GenWind,,GenWind,
time,status,PA,status,PR,status,RH,status,SR,status,TA,status,DirAvg,status,SpdAvg,
2014-04-19, 06:44:04,VALID,917.502,VALID,0,VALID,95.3079,VALID,32.0175,VALID,18.4968,VALID,141,VALID,1.19062,
2014-04-19, 06:45:04,VALID,917.507,VALID,0,VALID,95.3918,VALID,35.6705,VALID,18.5163,VALID,138,VALID,0.650391,
2014-04-19, 06:46:04,VALID,917.545,VALID,0,VALID,95.4452,VALID,33.1993,VALID,18.4954,VALID,128,VALID,0.828906,
2014-04-19, 06:47:04,VALID,917.554,VALID,0,VALID,95.4985,VALID,26.1082,VALID,18.5539,VALID,141,VALID,1.26992,
2014-04-19, 06:48:04,VALID,917.549,VALID,0,VALID,95.529,VALID,22.0254,VALID,18.5344,VALID,146,VALID,1.34883,
2014-04-19, 06:49:04,VALID,917.572,VALID,0,VALID,95.5519,VALID,22.6701,VALID,18.5748,VALID,144,VALID,1.02461,
2014-04-19, 06:50:04,VALID,917.572,VALID,0,VALID,95.5595,VALID,23.8519,VALID,18.5358,VALID,139,VALID,0.701172,
2014-04-19, 06:51:04,VALID,917.603,VALID,0,VALID,95.5519,VALID,25.1412,VALID,18.5149,VALID,139,VALID,0.690234,
2014-04-19, 06:52:04,VALID,917.637,VALID,0,VALID,95.5519,VALID,26.538,VALID,18.5344,VALID,142,VALID,0.946484,
2014-04-19, 06:53:04,VALID,917.656,VALID,0,VALID,95.5824,VALID,28.0421,VALID,18.5734,VALID,149,VALID,0.797266,
2014-04-19, 06:54:04,VALID,917.642,VALID,0,VALID,95.6129,VALID,32.0175,VALID,18.5943,VALID,157,VALID,0.8625,
2014-04-19, 06:55:04,VALID,917.675,VALID,0,VALID,95.5976,VALID,33.9514,VALID,18.6124,VALID,156,VALID,0.669531,
2014-04-19, 06:56:04,VALID,917.691,VALID,0,VALID,95.5748,VALID,35.1333,VALID,18.6319,VALID,146,VALID,0.705859,
2014-04-19, 06:57:04,VALID,917.734,VALID,0,VALID,95.5519,VALID,35.563,VALID,18.6918,VALID,145,VALID,0.637109,
2014-04-19, 06:58:04,VALID,917.746,VALID,0,VALID,95.4909,VALID,31.91,VALID,18.5929,VALID,142,VALID,0.977344,
2014-04-19, 06:59:04,VALID,917.773,VALID,0,VALID,95.4833,VALID,32.3398,VALID,18.6513,VALID,140,VALID,0.583984,
2014-04-19, 07:00:04,VALID,917.763,VALID,0,VALID,95.4604,VALID,32.9844,VALID,18.6903,VALID,132,VALID,0.722266,
2014-04-19, 07:01:04,VALID,917.812,VALID,0,VALID,95.4299,VALID,35.4556,VALID,18.6708,VALID,125,VALID,0.826563,
2014-04-19, 07:02:04,VALID,917.813,VALID,0,VALID,95.4071,VALID,37.2821,VALID,18.6708,VALID,128,VALID,0.937891,
2014-04-19, 07:03:04,VALID,917.839,VALID,0,VALID,95.3918,VALID,34.9184,VALID,18.7503,VALID,133,VALID,1.1918,
2014-04-19, 07:04:04,VALID,917.862,VALID,0,VALID,95.3461,VALID,34.1663,VALID,18.7293,VALID,132,VALID,0.979688,
2014-04-19, 07:05:04,VALID,917.873,VALID,0,VALID,95.2851,VALID,34.5961,VALID,18.7488,VALID,117,VALID,0.590625,
2014-04-19, 07:06:04,VALID,917.892,VALID,0,VALID,95.2241,VALID,35.3481,VALID,18.8087,VALID,131,VALID,0.816016,
2014-04-19, 07:07:04,VALID,917.921,VALID,0,VALID,95.1555,VALID,36.7449,VALID,18.7683,VALID,118,VALID,0.579297,
2014-04-19, 07:08:04,VALID,917.922,VALID,0,VALID,95.0792,VALID,38.2491,VALID,18.8073,VALID,117,VALID,0.715234,
2014-04-19, 07:09:04,VALID,917.903,VALID,0,VALID,95.003,VALID,39.7532,VALID,18.8073,VALID,112,VALID,1.03047,
2014-04-19, 07:10:04,VALID,917.932,VALID,0,VALID,94.9649,VALID,43.6211,VALID,18.8282,VALID,112,VALID,0.864844,
2014-04-19, 07:11:04,VALID,917.928,VALID,0,VALID,94.9115,VALID,48.2411,VALID,18.8073,VALID,112,VALID,0.845312,
2014-04-19, 07:12:04,VALID,917.915,VALID,0,VALID,94.9268,VALID,51.4643,VALID,18.7892,VALID,112,VALID,1.13164,
2014-04-19, 07:13:04,VALID,917.896,VALID,0,VALID,94.9192,VALID,57.6959,VALID,18.8477,VALID,112,VALID,0.753906,
2014-04-19, 07:14:04,VALID,917.907,VALID,0,VALID,94.9573,VALID,64.8945,VALID,18.8073,VALID,112,VALID,0.971484,
2014-04-19, 07:15:04,VALID,917.916,VALID,0,VALID,94.9725,VALID,68.44,VALID,18.7878,VALID,112,VALID,0.805469,
2014-04-19, 07:16:04,VALID,917.934,VALID,0,VALID,95.0106,VALID,72.2005,VALID,18.8463,VALID,112,VALID,0.909766,
2014-04-19, 07:17:04,VALID,917.948,VALID,0,VALID,95.064,VALID,85.6306,VALID,18.8463,VALID,112,VALID,0.632422,
2014-04-19, 07:18:04,VALID,917.963,VALID,0,VALID,95.1326,VALID,94.8705,VALID,18.9062,VALID,112,VALID,0.729297,
2014-04-19, 07:19:04,VALID,917.941,VALID,0,VALID,95.1936,VALID,84.7711,VALID,18.9438,VALID,112,VALID,0.747266,
2014-04-19, 07:20:04,VALID,917.968,VALID,0,VALID,95.186,VALID,88.639,VALID,18.9633,VALID,112,VALID,0.744922,
2014-04-19, 07:21:04,VALID,917.998,VALID,0,VALID,95.1783,VALID,132.905,VALID,18.9828,VALID,112,VALID,1.01875,
2014-04-19, 07:22:04,VALID,917.988,VALID,0,VALID,95.1402,VALID,143.112,VALID,19.0023,VALID,112,VALID,0.827344,
2014-04-19, 07:23:04,VALID,918,VALID,0,VALID,95.247,VALID,150.31,VALID,19.1193,VALID,112,VALID,0.375,
2014-04-19, 07:24:04,VALID,918.017,VALID,0,VALID,95.3003,VALID,157.079,VALID,19.2753,VALID,112,VALID,0.667578,
2014-04-19, 07:25:04,VALID,918.002,VALID,0,VALID,95.2698,VALID,160.839,VALID,19.2948,VALID,112,VALID,0.480859,
2014-04-19, 07:26:04,VALID,917.997,VALID,0,VALID,95.1707,VALID,164.17,VALID,19.3518,VALID,112,VALID,0.683984,
2014-04-19, 07:27:04,VALID,918.021,VALID,0,VALID,94.9573,VALID,167.178,VALID,19.4703,VALID,112,VALID,0.698047,
2014-04-19, 07:28:04,VALID,918.027,VALID,0,VALID,94.6752,VALID,169.972,VALID,19.4898,VALID,112,VALID,0.736328,
2014-04-19, 07:29:04,VALID,918.034,VALID,0,VALID,94.4617,VALID,172.013,VALID,19.5678,VALID,112,VALID,0.814844,
2014-04-19, 07:30:04,VALID,918.057,VALID,0,VALID,94.3626,VALID,173.41,VALID,19.6848,VALID,112,VALID,0.542969,
2014-04-19, 07:31:04,VALID,918.057,VALID,0,VALID,94.0196,VALID,174.699,VALID,19.7628,VALID,113,VALID,0.777344,
2014-04-19, 07:32:04,VALID,918.029,VALID,0,VALID,93.6918,VALID,175.774,VALID,19.8213,VALID,112,VALID,0.980469,
2014-04-19, 07:33:04,VALID,918.026,VALID,0,VALID,93.5469,VALID,178.567,VALID,19.8993,VALID,112,VALID,0.998047,
2014-04-19, 07:34:04,VALID,918.03,VALID,0,VALID,93.3868,VALID,182.757,VALID,19.9773,VALID,112,VALID,1.00039,
2014-04-19, 07:35:04,VALID,918.056,VALID,0,VALID,93.3411,VALID,187.915,VALID,20.0358,VALID,112,VALID,0.603906,
2014-04-19, 07:36:04,VALID,918.039,VALID,0,VALID,92.7236,VALID,192.642,VALID,20.0749,VALID,97,VALID,1.1625,
2014-04-19, 07:37:04,VALID,918.056,VALID,0,VALID,92.8532,VALID,196.94,VALID,20.1349,VALID,132,VALID,0.557422,
2014-04-19, 07:38:04,VALID,918.052,VALID,0,VALID,92.9294,VALID,200.593,VALID,20.2098,VALID,121,VALID,0.491016,
2014-04-19, 07:39:04,VALID,918.062,VALID,0,VALID,91.8927,VALID,204.461,VALID,20.1903,VALID,113,VALID,1.28672,
2014-04-19, 07:40:04,VALID,918.049,VALID,0,VALID,91.3057,VALID,208.973,VALID,20.1903,VALID,119,VALID,1.01094,
2014-04-19, 07:41:04,VALID,918.046,VALID,0,VALID,91.8088,VALID,213.378,VALID,20.3284,VALID,111,VALID,0.961328,
2014-04-19, 07:42:04,VALID,918.054,VALID,0,VALID,91.6487,VALID,216.172,VALID,20.3074,VALID,134,VALID,0.485156,
2014-04-19, 07:43:04,VALID,918.049,VALID,0,VALID,91.0998,VALID,219.073,VALID,20.2879,VALID,126,VALID,1.0625,
2014-04-19, 07:44:04,VALID,918.067,VALID,0,VALID,91.3285,VALID,223.692,VALID,20.3854,VALID,134,VALID,0.908984,
2014-04-19, 07:45:04,VALID,918.095,VALID,0,VALID,90.7415,VALID,227.56,VALID,20.4454,VALID,131,VALID,1.18438,
2014-04-19, 07:46:04,VALID,918.084,VALID,0,VALID,90.5814,VALID,230.354,VALID,20.4259,VALID,127,VALID,0.913672,
2014-04-19, 07:47:04,VALID,918.083,VALID,0,VALID,91.2828,VALID,234.544,VALID,20.5219,VALID,127,VALID,0.365234,
2014-04-19, 07:48:04,VALID,918.109,VALID,0,VALID,90.9626,VALID,238.734,VALID,20.6585,VALID,125,VALID,0.606641,
2014-04-19, 07:49:04,VALID,918.076,VALID,0,VALID,91.2523,VALID,243.139,VALID,20.7755,VALID,125,VALID,0.563281,
2014-04-19, 07:50:04,VALID,918.11,VALID,0,VALID,90.5586,VALID,247.652,VALID,20.8535,VALID,125,VALID,0.387109,
2014-04-19, 07:51:04,VALID,918.104,VALID,0,VALID,89.6819,VALID,250.553,VALID,20.912,VALID,106,VALID,0.817969,
2014-04-19, 07:52:04,VALID,918.106,VALID,0,VALID,89.0949,VALID,254.313,VALID,20.9706,VALID,106,VALID,0.738281,
2014-04-19, 07:53:04,VALID,918.071,VALID,0,VALID,88.95,VALID,256.677,VALID,21.0876,VALID,106,VALID,0.560547,
2014-04-19, 07:54:04,VALID,918.093,VALID,0,VALID,89.2397,VALID,259.793,VALID,21.2242,VALID,108,VALID,0.801172,
2014-04-19, 07:55:04,VALID,918.106,VALID,0,VALID,88.7366,VALID,263.768,VALID,21.2226,VALID,110,VALID,0.654297,
2014-04-19, 07:56:04,VALID,918.108,VALID,0,VALID,88.5841,VALID,267.636,VALID,21.3201,VALID,112,VALID,0.530469,
2014-04-19, 07:57:04,VALID,918.122,VALID,0,VALID,89.0339,VALID,271.181,VALID,21.4567,VALID,124,VALID,0.336328,
2014-04-19, 07:58:04,VALID,918.103,VALID,0,VALID,88.7518,VALID,274.62,VALID,21.6534,VALID,124,VALID,0.342969,
2014-04-19, 07:59:04,VALID,918.108,VALID,0,VALID,88.7975,VALID,279.669,VALID,21.8079,VALID,109,VALID,0.602344,
2014-04-19, 08:00:04,VALID,918.112,VALID,0,VALID,86.6935,VALID,283.86,VALID,21.9266,VALID,78,VALID,1.06484,
2014-04-19, 08:01:04,VALID,918.104,VALID,0,VALID,84.3988,VALID,287.942,VALID,21.9444,VALID,54,VALID,0.995313,
2014-04-19, 08:02:04,VALID,918.098,VALID,0,VALID,85.5195,VALID,290.521,VALID,22.0242,VALID,54,VALID,0.667188,
2014-04-19, 08:03:04,VALID,918.107,VALID,0,VALID,85.9235,VALID,294.389,VALID,22.1022,VALID,60,VALID,0.915625,
2014-04-19, 08:04:04,VALID,918.1,VALID,0,VALID,83.1181,VALID,298.472,VALID,22.081,VALID,64,VALID,0.769531,
2014-04-19, 08:05:04,VALID,918.117,VALID,0,VALID,83.1638,VALID,301.695,VALID,22.0598,VALID,52,VALID,0.878516,
2014-04-19, 08:06:04,VALID,918.123,VALID,0,VALID,83.9338,VALID,305.025,VALID,22.1201,VALID,44,VALID,0.470313,
2014-04-19, 08:07:04,VALID,918.157,VALID,0,VALID,84.9325,VALID,308.464,VALID,22.2371,VALID,44,VALID,0.769922,
2014-04-19, 08:08:04,VALID,918.16,VALID,0,VALID,84.9935,VALID,311.472,VALID,22.4128,VALID,44,VALID,0.387891,
2014-04-19, 08:09:04,VALID,918.203,VALID,0,VALID,83.9033,VALID,315.125,VALID,22.5884,VALID,44,VALID,0.857422,
2014-04-19, 08:10:04,VALID,918.233,VALID,0,VALID,80.9378,VALID,318.348,VALID,22.6665,VALID,44,VALID,0.550391,
2014-04-19, 08:11:04,VALID,918.221,VALID,0,VALID,82.371,VALID,322.001,VALID,22.7641,VALID,44,VALID,0.235547,
2014-04-19, 08:12:04,VALID,918.258,VALID,0,VALID,81.4486,VALID,325.224,VALID,22.8421,VALID,53,VALID,0.398047,
2014-04-19, 08:13:04,VALID,918.252,VALID,0,VALID,81.9822,VALID,329.307,VALID,22.9397,VALID,66,VALID,0.516406,
2014-04-19, 08:14:04,VALID,918.25,VALID,0,VALID,81.2199,VALID,332.315,VALID,22.9787,VALID,88,VALID,0.7,
2014-04-19, 08:15:04,VALID,918.264,VALID,0,VALID,81.0522,VALID,335.861,VALID,22.8812,VALID,116,VALID,1.01758,
2014-04-19, 08:16:04,VALID,918.285,VALID,0,VALID,80.7548,VALID,339.729,VALID,22.8014,VALID,105,VALID,0.864062,
2014-04-19, 08:17:04,VALID,918.275,VALID,0,VALID,83.0952,VALID,342.522,VALID,22.8404,VALID,63,VALID,0.707812,
2014-04-19, 08:18:04,VALID,918.281,VALID,0,VALID,82.8818,VALID,344.779,VALID,22.8599,VALID,87,VALID,0.554688,
2014-04-19, 08:19:04,VALID,918.313,VALID,0,VALID,82.5159,VALID,347.572,VALID,22.8599,VALID,127,VALID,0.594922,
2014-04-19, 08:20:04,VALID,918.303,VALID,0,VALID,83.2477,VALID,351.655,VALID,22.977,VALID,66,VALID,1.0043,
2014-04-19, 08:21:04,VALID,918.328,VALID,0,VALID,81.2656,VALID,355.523,VALID,23.0356,VALID,44,VALID,1.20156,
2014-04-19, 08:22:04,VALID,918.37,VALID,0,VALID,80.6024,VALID,359.283,VALID,23.0746,VALID,73,VALID,1.51172,
2014-04-19, 08:23:04,VALID,918.389,VALID,0,VALID,79.6495,VALID,363.903,VALID,22.8989,VALID,62,VALID,1.31172,
2014-04-19, 08:24:04,VALID,918.401,VALID,0,VALID,80.7853,VALID,367.771,VALID,22.7641,VALID,74,VALID,0.678125,
2014-04-19, 08:25:04,VALID,918.382,VALID,0,VALID,82.1728,VALID,370.994,VALID,22.7836,VALID,57,VALID,1.18555,
2014-04-19, 08:26:04,VALID,918.407,VALID,0,VALID,81.1589,VALID,375.077,VALID,22.7818,VALID,32,VALID,1.32305,
2014-04-19, 08:27:04,VALID,918.403,VALID,0,VALID,81.2809,VALID,378.3,VALID,22.8226,VALID,34,VALID,0.860156,
2014-04-19, 08:28:04,VALID,918.428,VALID,0,VALID,80.5948,VALID,381.094,VALID,22.8421,VALID,41,VALID,1.18008,
2014-04-19, 08:29:04,VALID,918.427,VALID,0,VALID,80.9073,VALID,385.177,VALID,22.8599,VALID,45,VALID,1.27656,
2014-04-19, 08:30:04,VALID,918.458,VALID,0,VALID,81.1513,VALID,388.4,VALID,22.7996,VALID,54,VALID,0.905859,
2014-04-19, 08:31:04,VALID,918.457,VALID,0,VALID,81.3952,VALID,391.623,VALID,22.8387,VALID,40,VALID,0.384375,
2014-04-19, 08:32:04,VALID,918.447,VALID,0,VALID,79.3903,VALID,394.309,VALID,22.9362,VALID,40,VALID,0.178516,
2014-04-19, 08:33:04,VALID,918.468,VALID,0,VALID,81.075,VALID,398.392,VALID,23.0924,VALID,39,VALID,0.466016,
2014-04-19, 08:34:04,VALID,918.466,VALID,0,VALID,80.3203,VALID,401.937,VALID,23.3478,VALID,45,VALID,0.984375,
2014-04-19, 08:35:04,VALID,918.513,VALID,0,VALID,80.2669,VALID,405.161,VALID,23.4845,VALID,43,VALID,0.387891,
2014-04-19, 08:36:04,VALID,918.528,VALID,0,VALID,79.2607,VALID,410.21,VALID,23.6602,VALID,334,VALID,0.766016,
2014-04-19, 08:37:04,VALID,918.534,VALID,0,VALID,78.0943,VALID,414.723,VALID,23.7578,VALID,334,VALID,0.732422,
2014-04-19, 08:38:04,VALID,918.541,VALID,0,VALID,76.844,VALID,418.483,VALID,23.7578,VALID,324,VALID,0.319141,
2014-04-19, 08:39:04,VALID,918.581,VALID,0,VALID,77.21,VALID,421.492,VALID,23.7968,VALID,324,VALID,0.749219,
2014-04-19, 08:40:04,VALID,918.567,VALID,0,VALID,76.3561,VALID,425.36,VALID,23.7187,VALID,322,VALID,0.739062,
2014-04-19, 08:41:04,VALID,918.569,VALID,0,VALID,77.7665,VALID,428.905,VALID,23.6211,VALID,329,VALID,0.639844,
2014-04-19, 08:42:04,VALID,918.586,VALID,0,VALID,77.675,VALID,431.376,VALID,23.6797,VALID,347,VALID,0.739844,
2014-04-19, 08:43:04,VALID,918.61,VALID,0,VALID,77.3472,VALID,434.277,VALID,23.7968,VALID,340,VALID,0.566797,
2014-04-19, 08:44:04,VALID,918.608,VALID,0,VALID,78.1705,VALID,438.575,VALID,23.8145,VALID,329,VALID,1.25508,
2014-04-19, 08:45:04,VALID,918.589,VALID,0,VALID,77.1871,VALID,441.905,VALID,23.7382,VALID,351,VALID,0.835547,
2014-04-19, 08:46:04,VALID,918.578,VALID,0,VALID,76.8745,VALID,446.203,VALID,23.7187,VALID,329,VALID,0.558203,
2014-04-19, 08:47:04,VALID,918.577,VALID,0,VALID,78.0333,VALID,449.319,VALID,23.6797,VALID,344,VALID,0.836328,
2014-04-19, 08:48:04,VALID,918.59,VALID,0,VALID,77.9266,VALID,452.542,VALID,23.7169,VALID,316,VALID,0.704687,
2014-04-19, 08:49:04,VALID,918.587,VALID,0,VALID,77.7207,VALID,456.625,VALID,23.6584,VALID,320,VALID,1.02695,
2014-04-19, 08:50:04,VALID,918.536,VALID,0,VALID,77.3929,VALID,459.203,VALID,23.6602,VALID,2,VALID,0.493359,
2014-04-19, 08:51:04,VALID,918.568,VALID,0,VALID,77.7512,VALID,461.997,VALID,23.6974,VALID,327,VALID,0.74375,
2014-04-19, 08:52:04,VALID,918.526,VALID,0,VALID,79.0091,VALID,465.972,VALID,23.7364,VALID,302,VALID,0.325,
2014-04-19, 08:53:04,VALID,918.513,VALID,0,VALID,79.0015,VALID,470.485,VALID,23.834,VALID,306,VALID,0.471875,
2014-04-19, 08:54:04,VALID,918.495,VALID,0,VALID,77.4463,VALID,472.311,VALID,23.8536,VALID,289,VALID,0.730859,
2014-04-19, 08:55:04,VALID,918.502,VALID,0,VALID,78.4526,VALID,476.287,VALID,23.7169,VALID,285,VALID,0.530078,
2014-04-19, 08:56:04,VALID,918.509,VALID,0,VALID,79.0777,VALID,480.047,VALID,23.6974,VALID,302,VALID,0.322656,
2014-04-19, 08:57:04,VALID,918.496,VALID,0,VALID,78.8261,VALID,481.121,VALID,23.8944,VALID,301,VALID,0.0339844,
2014-04-19, 08:58:04,VALID,918.488,VALID,0,VALID,77.37,VALID,483.915,VALID,23.953,VALID,253,VALID,0.558203,
2014-04-19, 08:59:04,VALID,918.508,VALID,0,VALID,76.4629,VALID,484.452,VALID,23.992,VALID,254,VALID,0.425,
2014-04-19, 09:00:04,VALID,918.501,VALID,0,VALID,76.3714,VALID,489.932,VALID,24.0506,VALID,253,VALID,0.740625,
2014-04-19, 09:01:04,VALID,918.523,VALID,0,VALID,76.1808,VALID,494.767,VALID,24.0115,VALID,253,VALID,0.5375,
2014-04-19, 09:02:04,VALID,918.515,VALID,0,VALID,75.8759,VALID,497.99,VALID,23.992,VALID,263,VALID,0.773047,
2014-04-19, 09:03:04,VALID,918.502,VALID,0,VALID,75.083,VALID,500.461,VALID,23.8536,VALID,263,VALID,0.651563,
2014-04-19, 09:04:04,VALID,918.528,VALID,0,VALID,75.9673,VALID,506.907,VALID,23.6992,VALID,262,VALID,1.06992,
2014-04-19, 09:05:04,VALID,918.502,VALID,0,VALID,75.8606,VALID,510.99,VALID,23.6406,VALID,250,VALID,1.225,
2014-04-19, 09:06:04,VALID,918.529,VALID,0,VALID,75.792,VALID,513.031,VALID,23.5412,VALID,250,VALID,0.810156,
2014-04-19, 09:07:04,VALID,918.496,VALID,0,VALID,76.1427,VALID,515.395,VALID,23.4845,VALID,250,VALID,0.846484,
2014-04-19, 09:08:04,VALID,918.514,VALID,0,VALID,76.2342,VALID,523.453,VALID,23.543,VALID,250,VALID,0.607422,
2014-04-19, 09:09:04,VALID,918.487,VALID,0,VALID,75.853,VALID,543.437,VALID,23.6566,VALID,250,VALID,0.423828,
2014-04-19, 09:10:04,VALID,918.541,VALID,0,VALID,75.6243,VALID,552.247,VALID,23.9335,VALID,251,VALID,0.703516,
2014-04-19, 09:11:04,VALID,918.565,VALID,0,VALID,73.2991,VALID,564.496,VALID,24.0665,VALID,250,VALID,1.05273,
2014-04-19, 09:12:04,VALID,918.553,VALID,0,VALID,73.1772,VALID,560.95,VALID,24.0292,VALID,250,VALID,0.769531,
2014-04-19, 09:13:04,VALID,918.567,VALID,0,VALID,72.6588,VALID,564.173,VALID,24.0292,VALID,250,VALID,0.946484,
2014-04-19, 09:14:04,VALID,918.594,VALID,0,VALID,72.3615,VALID,557.082,VALID,24.1482,VALID,250,VALID,1.18125,
2014-04-19, 09:15:04,VALID,918.558,VALID,0,VALID,72.0718,VALID,567.719,VALID,24.2458,VALID,250,VALID,0.966797,
2014-04-19, 09:16:04,VALID,918.564,VALID,0,VALID,71.7135,VALID,576.314,VALID,24.4374,VALID,250,VALID,0.585156,
2014-04-19, 09:17:04,VALID,918.543,VALID,0,VALID,70.4861,VALID,579.86,VALID,24.5796,VALID,250,VALID,0.806641,
2014-04-19, 09:18:04,VALID,918.551,VALID,0,VALID,70.7605,VALID,565.893,VALID,24.4978,VALID,250,VALID,0.696484,
2014-04-19, 09:19:04,VALID,918.563,VALID,0,VALID,69.8229,VALID,576.852,VALID,24.4783,VALID,250,VALID,0.964063,
2014-04-19, 09:20:04,VALID,918.543,VALID,0,VALID,70.5623,VALID,577.819,VALID,24.2617,VALID,250,VALID,0.951172,
2014-04-19, 09:21:04,VALID,918.52,VALID,0,VALID,69.5027,VALID,567.397,VALID,24.1854,VALID,250,VALID,0.889453,
2014-04-19, 09:22:04,VALID,918.514,VALID,0,VALID,69.1673,VALID,250.553,VALID,24.1854,VALID,250,VALID,0.285547,
2014-04-19, 09:23:04,VALID,918.507,VALID,0,VALID,69.7085,VALID,405.053,VALID,24.3026,VALID,250,VALID,0.333203,
2014-04-19, 09:24:04,VALID,918.503,VALID,0,VALID,70.8749,VALID,570.298,VALID,24.4606,VALID,250,VALID,0.305469,
2014-04-19, 09:25:04,VALID,918.5,VALID,0,VALID,69.7009,VALID,590.174,VALID,24.693,VALID,250,VALID,0.0390625,
2014-04-19, 09:26:04,VALID,918.532,VALID,0,VALID,70.387,VALID,599.844,VALID,24.9878,VALID,250,VALID,0.264062,
2014-04-19, 09:27:04,VALID,918.521,VALID,0,VALID,69.8457,VALID,143.434,VALID,25.0074,VALID,250,VALID,0.651953,
2014-04-19, 09:28:04,VALID,918.531,VALID,0,VALID,69.0148,VALID,227.775,VALID,25.0055,VALID,250,VALID,0.473437,
2014-04-19, 09:29:04,VALID,918.512,VALID,0,VALID,70.2422,VALID,143.326,VALID,24.9469,VALID,250,VALID,0.705859,
2014-04-19, 09:30:04,VALID,918.481,VALID,0,VALID,69.4798,VALID,143.004,VALID,24.9255,VALID,250,VALID,0.351953,
2014-04-19, 09:31:04,VALID,918.482,VALID,0,VALID,69.2054,VALID,506.37,VALID,24.9488,VALID,250,VALID,0.273047,
2014-04-19, 09:32:04,VALID,918.503,VALID,0,VALID,69.6933,VALID,169.112,VALID,24.9683,VALID,250,VALID,0.391797,
2014-04-19, 09:33:04,VALID,918.481,VALID,0,VALID,69.9448,VALID,453.831,VALID,24.8688,VALID,250,VALID,0.231641,
2014-04-19, 09:34:04,VALID,918.471,VALID,0,VALID,70.2727,VALID,547.735,VALID,24.8864,VALID,250,VALID,0.359375,
2014-04-19, 09:35:04,VALID,918.462,VALID,0,VALID,70.1888,VALID,635.3,VALID,24.9859,VALID,250,VALID,0.522656,
2014-04-19, 09:36:04,VALID,918.448,VALID,0,VALID,70.5166,VALID,643.25,VALID,25.064,VALID,250,VALID,0.342969,
2014-04-19, 09:37:04,VALID,918.447,VALID,0,VALID,68.9233,VALID,654.639,VALID,25.2593,VALID,250,VALID,0,
2014-04-19, 09:38:04,VALID,918.448,VALID,0,VALID,67.8332,VALID,623.266,VALID,25.3179,VALID,250,VALID,0.575391,
2014-04-19, 09:39:04,VALID,918.426,VALID,0,VALID,68.6946,VALID,623.266,VALID,25.4546,VALID,250,VALID,0,
2014-04-19, 09:40:04,VALID,918.417,VALID,0,VALID,67.1089,VALID,621.869,VALID,25.5113,VALID,250,VALID,0.743359,
2014-04-19, 09:41:04,VALID,918.405,VALID,0,VALID,66.2399,VALID,624.663,VALID,25.4351,VALID,250,VALID,0.314063,
2014-04-19, 09:42:04,VALID,918.414,VALID,0,VALID,66.5982,VALID,624.878,VALID,25.5132,VALID,250,VALID,0.665625,
2014-04-19, 09:43:04,VALID,918.387,VALID,0,VALID,66.9488,VALID,633.258,VALID,25.4527,VALID,250,VALID,0.461328,
2014-04-19, 09:44:04,VALID,918.401,VALID,0,VALID,66.1255,VALID,640.457,VALID,25.4937,VALID,250,VALID,0.801172,
2014-04-19, 09:45:04,VALID,918.375,VALID,0,VALID,65.8587,VALID,643.573,VALID,25.3941,VALID,250,VALID,0.910937,
2014-04-19, 09:46:04,VALID,918.35,VALID,0,VALID,67.4215,VALID,640.779,VALID,25.357,VALID,250,VALID,0.464453,
2014-04-19, 09:47:04,VALID,918.357,VALID,0,VALID,68.9538,VALID,656.788,VALID,25.2203,VALID,250,VALID,0.916797,
2014-04-19, 09:48:04,VALID,918.338,VALID,0,VALID,68.1838,VALID,691.921,VALID,25.2379,VALID,250,VALID,0.528516,
2014-04-19, 09:49:04,VALID,918.277,VALID,0,VALID,68.3897,VALID,599.414,VALID,25.3746,VALID,250,VALID,0.529297,
2014-04-19, 09:50:04,VALID,918.285,VALID,0,VALID,67.7645,VALID,549.239,VALID,25.4917,VALID,250,VALID,0.569922,
2014-04-19, 09:51:04,VALID,918.247,VALID,0,VALID,67.8713,VALID,146.013,VALID,25.6089,VALID,250,VALID,0.196094,
2014-04-19, 09:52:04,VALID,918.228,VALID,0,VALID,68.565,VALID,170.617,VALID,25.7261,VALID,250,VALID,0.511719,
2014-04-19, 09:53:04,VALID,918.2,VALID,0,VALID,68.2448,VALID,182.005,VALID,25.7866,VALID,250,VALID,0.363281,
2014-04-19, 09:54:04,VALID,918.186,VALID,0,VALID,67.4062,VALID,448.674,VALID,25.7085,VALID,250,VALID,0.301562,
2014-04-19, 09:55:04,VALID,918.151,VALID,0,VALID,65.386,VALID,700.301,VALID,25.687,VALID,250,VALID,1.08828,
2014-04-19, 09:56:04,VALID,918.13,VALID,0,VALID,65.447,VALID,618.861,VALID,25.7261,VALID,250,VALID,0.426172,
2014-04-19, 09:57:04,VALID,918.135,VALID,0,VALID,65.0049,VALID,301.372,VALID,25.8648,VALID,250,VALID,0.6625,
2014-04-19, 09:58:04,VALID,918.118,VALID,0,VALID,64.738,VALID,130.111,VALID,25.8237,VALID,250,VALID,0.430078,
2014-04-19, 09:59:04,VALID,918.093,VALID,0,VALID,66.3771,VALID,167.716,VALID,25.7085,VALID,250,VALID,0.317578,
2014-04-19, 10:00:04,VALID,918.052,VALID,0,VALID,67.1547,VALID,634.225,VALID,25.4937,VALID,250,VALID,0.619141,
2014-04-19, 10:01:04,VALID,918.046,VALID,0,VALID,68.1381,VALID,448.782,VALID,25.3374,VALID,250,VALID,1.22266,
2014-04-19, 10:02:04,VALID,918.019,VALID,0,VALID,69.5027,VALID,676.02,VALID,25.1812,VALID,250,VALID,0.367969,
2014-04-19, 10:03:04,VALID,918.004,VALID,0,VALID,70.9283,VALID,717.385,VALID,25.2788,VALID,250,VALID,0.526172,
2014-04-19, 10:04:04,VALID,918.017,VALID,0,VALID,69.8915,VALID,715.343,VALID,25.2788,VALID,250,VALID,0.284375,
2014-04-19, 10:05:04,VALID,918,VALID,0,VALID,70.2345,VALID,718.352,VALID,25.4351,VALID,250,VALID,0.610547,
2014-04-19, 10:06:04,VALID,917.995,VALID,0,VALID,68.6946,VALID,716.418,VALID,25.5718,VALID,173,VALID,0.850391,
2014-04-19, 10:07:04,VALID,918.006,VALID,0,VALID,68.6489,VALID,709.864,VALID,25.7866,VALID,176,VALID,0.516016,
2014-04-19, 10:08:04,VALID,917.996,VALID,0,VALID,68.2601,VALID,705.244,VALID,26.021,VALID,184,VALID,0.613281,
2014-04-19, 10:09:04,VALID,917.963,VALID,0,VALID,66.4991,VALID,698.582,VALID,26.0972,VALID,212,VALID,0.830078,
2014-04-19, 10:10:04,VALID,917.963,VALID,0,VALID,67.5358,VALID,695.467,VALID,26.1578,VALID,212,VALID,0.353906,
2014-04-19, 10:11:04,VALID,917.972,VALID,0,VALID,68.1,VALID,695.896,VALID,26.0992,VALID,198,VALID,1.43125,
2014-04-19, 10:12:04,VALID,917.943,VALID,0,VALID,66.804,VALID,696.541,VALID,26.2164,VALID,198,VALID,1.13828,
2014-04-19, 10:13:04,VALID,917.943,VALID,0,VALID,65.8282,VALID,694.714,VALID,26.3531,VALID,198,VALID,0.605859,
2014-04-19, 10:14:04,VALID,917.915,VALID,0,VALID,66.3237,VALID,696.541,VALID,26.5074,VALID,198,VALID,0.251953,
2014-04-19, 10:15:04,VALID,917.894,VALID,0,VALID,66.7887,VALID,701.161,VALID,26.5269,VALID,198,VALID,0.861328,
2014-04-19, 10:16:04,VALID,917.892,VALID,0,VALID,68.1915,VALID,701.591,VALID,26.5269,VALID,198,VALID,1.25703,
2014-04-19, 10:17:04,VALID,917.896,VALID,0,VALID,66.9641,VALID,704.062,VALID,26.6246,VALID,197,VALID,0.693359,